Regional Weather Roundup
Issued by NWS

Home | Current Version | Previous Version | Graphics & Text | Print | Product List | Glossary On
Versions: 1 2 3 4 5 6 7 8 9 10 11 12 13 14 15 16 17 18 19 20 21 22 23 24 25 26 27 28 29 30 31 32 33 34 35 36 37 38 39 40 41 42 43 44 45 46 47 48 49 50
000
ASUS45 KBOU 270107
RWRCO

WEATHER ROUNDUP FOR COLORADO
NATIONAL WEATHER SERVICE DENVER/BOULDER CO
600 PM MST SUN FEB 26 2017

NOTE: "FAIR" INDICATES FEW OR NO CLOUDS BELOW 12000 FEET WITH NO
SIGNIFICANT WEATHER AND/OR OBSTRUCTIONS TO VISIBILITY.

COZ001>005-013-030-031-270200-
...NORTHWEST COLORADO...

CITY           SKY/WX    TMP DP  RH WIND       PRES   REMARKS
CRAIG          FAIR      26   7  44 E5        29.79S WCI  20
HAYDEN         FAIR      27   1  33 SW6       29.78R WCI  20
MEEKER         FAIR      29   5  36 SW9       29.79S WCI  20
MOUNT WERNER   NOT AVBL
STEAMBOAT SPGS FAIR      22   1  41 CALM      29.79R
WALDEN         NOT AVBL
$$

COZ006>008-011-270200-
...WEST CENTRAL VALLEYS...

CITY           SKY/WX    TMP DP  RH WIND       PRES   REMARKS
GRAND JUNCTION FAIR      39   7  26 NE3       29.82S
MONTROSE       FAIR      37  10  32 SW7       29.86R
EAGLE          PTCLDY    32   9  37 SW12      29.81S WCI  23
RIFLE          FAIR      35   7  31 W7        29.82R WCI  29
DELTA          MOCLDY    41   6  23 E5        29.84S
NUCLA          FAIR      36  10  35 SW5       29.88S
$$

COZ017>023-064>068-270200-
...SOUTHWEST COLORADO...

CITY           SKY/WX    TMP DP  RH WIND       PRES   REMARKS
DURANGO        FAIR      34   4  28 W9        29.87R WCI  27
CORTEZ         FAIR      37  12  35 W5        29.86F
PAGOSA SPRINGS FAIR      32   5  32 SW9       29.88R WCI  24
TELLURIDE      FAIR      23   5  46 CALM      29.85R
WOLF CREEK PAS MOCLDY     9   1  72 SW24G32   29.83S WCI -12
$$

COZ009-010-012-014-032>034-037-058>063-270200-
...CENTRAL COLORADO...

CITY           SKY/WX    TMP DP  RH WIND       PRES   REMARKS
ASPEN          FAIR      21   1  41 SW7       29.79R WCI  12
BUENA VISTA    FAIR      26  -3  28 W15G25    29.79R WCI  13
COPPER MTN     FAIR       9  -8  47 MISG      29.71R
BERTHOUD PASS  FAIR       0  -9  65 W24       29.67R WCI -24
COTTONWOOD PAS FAIR      21  -6  30 W13G20    29.76R WCI   9
GUNNISON       FAIR      21   8  57 NE10      29.84S WCI  10
KREMMLING      FAIR      32   3  29 SW10G17   29.78S WCI  24
LEADVILLE      FAIR      13 -11  33 NE3       29.74R
MONARCH PASS     N/A      5   1  85 W43G48    29.80F WCI -22
SALIDA         FAIR      29  -1  27 SW13G22   29.87F WCI  19
SUNLIGHT       NOT AVBL
WILKERSON PASS FAIR      12  -9  37 SW10G21   29.74R WCI  -1
$$

COZ069>075-270200-
...SAN LUIS VALLEY/SANGRE DE CRISTO MOUNTAINS...

CITY           SKY/WX    TMP DP  RH WIND       PRES   REMARKS
ALAMOSA        FAIR      31   9  39 SW16      29.83R WCI  20
LA VETA PASS   FAIR      19   3  49 SW23G36   29.76S WCI   2
SAGUACHE       FAIR      27   1  33 NW13      29.83R WCI  16
$$

COZ035-036-038>040-270200-
...NORTHERN COLORADO FRONT RANGE...

CITY           SKY/WX    TMP DP  RH WIND       PRES   REMARKS
DENVER INTL AP FAIR      34  -1  22 N7        29.74S WCI  28
DMNS CITY PARK   N/A     37  -5  16 NE5       29.74R
AURORA         PTCLDY    32  -3  21 NE6       29.74S WCI  27
FRONT RANGE AP PTCLDY    36   1  23 NE7       29.75S
ERIE MUNI ARPT FAIR      36  -2  20 E5        29.75R
BOULDER MUN AP FAIR      37   1  22 SW6       29.74R
CENTENNIAL     FAIR      36  -6  16 NE3       29.73S
BROOMFIELD     PTCLDY    36   0  21 NE5       29.75R
FORT COLLINS   FAIR      30  18  60 N8        29.77R WCI  22
LONGMONT       NOT AVBL
$$

COZ041-046-047-076>085-087-088-270200-
...PIKES PEAK/PALMER DIVIDE AND SOUTHERN FOOTHILLS...

CITY           SKY/WX    TMP DP  RH WIND       PRES   REMARKS
COLO. SPRINGS  FAIR      36 -12  12 W12       29.75R
A. F. ACADEMY  FAIR      35 -12  13 W8        29.73R WCI  28
SCHRIEVER AFB  FAIR      34 -11  14 SW10      29.75R WCI  26
ELLICOTT       NOT AVBL
FALCON         FAIR      32 -13  13 W9        29.75R WCI  24
FORT CARSON    FAIR      38 -12  11 W10       29.75R
LIMON          FAIR      27   1  32 SE6       29.76S WCI  20
MONUMENT HILL  FAIR      30  -2  24 E3        29.74S
TRINIDAD       FAIR      40   1  19 NW8       29.79R
$$

COZ042>045-048>051-090-091-270200-
...NORTHEAST COLORADO...

CITY           SKY/WX    TMP DP  RH WIND       PRES   REMARKS
GREELEY ARPT   FAIR      34   4  28 E6        29.78R WCI  29
AKRON          FAIR      32   9  38 E7        29.77S WCI  26
BURLINGTON     FAIR      34   7  32 SE13      29.82S WCI  25
WRAY           NOT AVBL
STERLING       FAIR      32  19  59 NE7       29.80R WCI  26
HOLYOKE        FAIR      32  18  55 E8        29.84S WCI  25
FORT MORGAN    FAIR      31  15  51 NE8       29.79R WCI  23
$$

COZ086-089-092>099-270200-
...SOUTHEAST COLORADO...

CITY           SKY/WX    TMP DP  RH WIND       PRES   REMARKS
PUEBLO         FAIR      43  -8  11 W7        29.76R
LA JUNTA       FAIR      43   7  22 E15       29.79R
LAMAR          FAIR      39   6  25 SE7       29.82R
SPRINGFIELD      N/A     38   5  25 E13       29.81R
$$



USA.gov is the U.S. government's official web portal to all federal, state and local government web resources and services.